Flag for New Zealand Weather past 2 weeks in Auckland, New Zealand

Now
57 °F

Partly sunny.


Feels Like: 53 °F
Forecast: 52 / 58 °F
Wind: 20 mph from East

Location: Auckland Airport

Current Time: Aug 29, 2014 at 11:51:21 AM

Latest Report: Aug 29, 2014 at 11:00 AM


Visibility: N/A

Pressure: 30.42 "Hg

Humidity: 72%

Dew point: 48 °F

Location of AucklandLocation

Historic Weather in Auckland — Graph

°F

Auckland temperature yesterday

Maximum temperature yesterday: 59 °F (at 12:00 PM)
Minimum temperature yesterday: 48 °F (at 1:30 AM)
Average temperature yesterday: 53 °F

Past Weeks' High & Low Weather Summary

 TemperatureHumidityPressure
High61 °F (Aug 20, 10:30 AM)100% (Aug 14, 11:30 PM)30.48 "Hg (Aug 14, 11:30 PM)
Low41 °F (Aug 22, 3:30 AM)45% (Aug 26, 12:00 PM)29.53 "Hg (Aug 20, 3:00 PM)
Average52 °F81%30.16 "Hg
* Reported Aug 14 10:00 AM — Aug 29 10:30 AM, Auckland, Weather by CustomWeather, © 2014

Note: Actual official high and low records may vary slightly from our data, if they occured in-between our weather recording intervals... More about our weather records

Advertising

Auckland weather history for previous 24 hours

 ConditionsComfort  
Time TempWeatherWind HumidityBarometerVisibility
10:30 AM
Aug 29
57 °FBroken clouds.17 mph67%30.42 "HgN/A
10:00 AM57 °FScattered clouds.14 mph72%30.42 "HgN/A
9:30 AM55 °FScattered clouds.9 mph82%30.42 "HgN/A
9:00 AM54 °FBroken clouds.10 mph82%30.45 "HgN/A
8:30 AM52 °FMostly cloudy.12 mph88%30.45 "HgN/A
8:00 AM52 °FPartly sunny.12 mph88%30.45 "HgN/A
7:30 AM52 °FPartly sunny.9 mph82%30.45 "HgN/A
7:00 AM50 °FPartly sunny.8 mph82%30.45 "HgN/A
6:30 AM50 °FPartly sunny.10 mph82%30.45 "HgN/A
6:00 AM48 °FPassing clouds.8 mph87%30.42 "HgN/A
5:30 AM50 °FCool.8 mph82%30.42 "HgN/A
5:00 AM50 °FPassing clouds.9 mph88%30.42 "HgN/A
4:30 AM52 °FPassing clouds.9 mph82%30.42 "HgN/A
4:00 AM52 °FPassing clouds.9 mph82%30.42 "HgN/A
3:30 AM52 °FCool.12 mph82%30.42 "HgN/A
3:00 AM52 °FPassing clouds.10 mph77%30.42 "HgN/A
2:30 AM50 °FPassing clouds.9 mph82%30.42 "HgN/A
2:00 AM50 °FPassing clouds.8 mph82%30.45 "HgN/A
1:30 AM50 °FPassing clouds.8 mph88%30.45 "HgN/A
1:00 AM50 °FPassing clouds.6 mph82%30.45 "HgN/A
12:30 AM50 °FCool.7 mph82%30.45 "HgN/A
11:30 PM
Aug 28
50 °FCool.8 mph88%30.45 "HgN/A
11:00 PM50 °FCool.9 mph88%30.45 "HgN/A
10:30 PM50 °FPassing clouds.9 mph88%30.45 "HgN/A
10:00 PM50 °FPassing clouds.8 mph88%30.45 "HgN/A
9:30 PM50 °FPassing clouds.9 mph88%30.45 "HgN/A
9:00 PM50 °FPassing clouds.9 mph88%30.45 "HgN/A
8:30 PM52 °FPassing clouds.9 mph82%30.45 "HgN/A
8:00 PM50 °FPassing clouds.7 mph88%30.45 "HgN/A
7:30 PM52 °FCool.7 mph77%30.45 "HgN/A
7:00 PM54 °FCool.8 mph72%30.45 "HgN/A
6:30 PM54 °FCool.8 mph72%30.45 "HgN/A
6:00 PM55 °FPassing clouds.9 mph67%30.42 "HgN/A
5:30 PM55 °FPassing clouds.9 mph67%30.42 "HgN/A
5:00 PM57 °FOvercast.12 mph63%30.42 "HgN/A
4:30 PM57 °FPartly sunny.14 mph63%30.42 "HgN/A
4:00 PM57 °FPartly sunny.13 mph67%30.42 "HgN/A
3:30 PM59 °FPassing clouds.15 mph59%30.42 "HgN/A
3:00 PM57 °FCool.17 mph63%30.42 "HgN/A
2:30 PM59 °FRefreshingly cool.18 mph59%30.42 "HgN/A
2:00 PM59 °FPassing clouds.17 mph59%30.42 "HgN/A
1:30 PM59 °FPartly sunny.16 mph59%30.42 "HgN/A
1:00 PM59 °FOvercast.18 mph59%30.45 "HgN/A
12:30 PM59 °FPartly sunny.17 mph59%30.45 "HgN/A
12:00 PM59 °FPartly sunny.18 mph59%30.45 "HgN/A
11:30 AM57 °FPartly sunny.14 mph63%30.45 "HgN/A
11:00 AM55 °FPartly sunny.15 mph72%30.48 "HgN/A
Weather by CustomWeather, © 2014

See weather overviewHow to use our weather pages